STARLINK-1866 (47152 NORAD) Tracking and Keplerian Element Data

This shows tracking and keplerian element data for the satellite.

Feedback or suggestion? Click here.




ElementValue
Catalog47152
NameSTARLINK-1866
Epoch Orbit968
Epoch Day21.16668981
Epoch Year2021
RAAN73.8086
Inclination53.0543
Eccentricity0.0001269
Argument of Perigee66.9839
Mean Anonmoly221.6556
Mean Motion15.37743342
Decay Rate-0.01079929
L11 47152U 20088AG 21021.16668981 -.01079929 00000-0 -31285-1 0 9997
L22 47152 53.0543 73.8086 0001269 66.9839 221.6556 15.37743342 9681

Live tracking and technical data element details for STARLINK-1866 (NORAD 47152). STARLINK-1866 can be tracked NOW for your location showing map with azimuth and elevation plus other details from your city location.

Track the satellite on the map from your city or location and see movement details for azimuth, elevation, latitude, longitude, range, height, and movement on the map or in text.







IsCatalogInMostPopularTable: catalog: 47152, numindb: 20
Update: records affected: 1



GetName: 47152 STARLINK-1866

Hit Count: updated at: Fri, 22 Jan 2021 15:01:46 GMT